Location: Austin
(30.3000°N, 97.7500°W)
Time: 06:04:36
(UTC-05:00)

CZ-4B R/B - Visible Passes

Search period start: 09 October 2024 00:00
Search period end: 19 October 2024 00:00
Orbit: 807 x 881 km, 99.0° (Epoch: 08 October)

Date Brightness Start Highest point End Pass type
(mag) Time Alt. Az. Time Alt. Az. Time Alt. Az.
09 Oct 5.3 21:46:54 17° NNW 21:46:54 17° NNW 21:48:06 10° NNW visible
10 Oct 5.2 21:33:13 17° N 21:33:13 17° N 21:34:25 10° N visible
11 Oct 5.2 21:19:32 16° N 21:19:32 16° N 21:20:36 10° N visible
12 Oct 5.2 21:05:51 14° N 21:05:51 14° N 21:06:42 10° N visible
13 Oct 5.3 20:52:10 12° NNE 20:52:10 12° NNE 20:52:40 10° NNE visible
